| time (UTC) | temp F | wind direction | speed MPH | gust MPH | rain 1hr in | rain 24hr in | rain mn in | humidity % | barometer mb |
| 20260903201558 | 82 | 0 | 0.0 | 5.0 | 0.00 | 0.35 | 0.25 | 74 | 1002.9 |
| 20260903194600 | 82 | 0 | 0.0 | 2.0 | 0.00 | 0.35 | 0.25 | 75 | 1003.1 |
| 20260903193102 | 81 | 0 | 0.0 | 3.0 | 0.00 | 0.35 | 0.25 | 76 | 1003.2 |
| 20260903191600 | 81 | 0 | 1.0 | 4.0 | 0.00 | 0.35 | 0.25 | 74 | 1003.3 |
| 20260903190107 | 81 | 0 | 1.0 | 4.0 | 0.00 | 0.35 | 0.25 | 76 | 1003.4 |
| 20260903184559 | 80 | 0 | 0.0 | 4.0 | 0.00 | 0.40 | 0.25 | 78 | 1003.6 |
| 20260903183055 | 80 | 45 | 0.0 | 6.0 | 0.00 | 0.40 | 0.25 | 77 | 1003.7 |
| 20260903181557 | 80 | 106 | 1.0 | 5.0 | 0.00 | 0.40 | 0.25 | 78 | 1003.6 |
| 20260903180058 | 79 | 0 | 0.0 | 2.0 | 0.00 | 0.40 | 0.25 | 80 | 1003.8 |
| 20260903174558 | 79 | 118 | 2.0 | 4.0 | 0.00 | 0.58 | 0.25 | 83 | 1003.8 |
| 20260903173059 | 79 | 0 | 0.0 | 3.0 | 0.00 | 0.58 | 0.25 | 85 | 1003.7 |
| 20260903171605 | 77 | 0 | 0.0 | 2.0 | 0.00 | 0.58 | 0.25 | 88 | 1004.0 |
| 20260903170106 | 76 | 0 | 0.0 | 1.0 | 0.00 | 0.58 | 0.25 | 92 | 1004.1 |
| 20260903164605 | 75 | 0 | 0.0 | 2.0 | 0.00 | 0.58 | 0.25 | 93 | 1004.4 |
| 20260903163058 | 74 | 0 | 0.0 | 3.0 | 0.00 | 0.58 | 0.25 | 94 | 1004.5 |
| 20260903161602 | 73 | 0 | 0.0 | 1.0 | 0.00 | 0.58 | 0.25 | 96 | 1004.6 |
| 20260903154609 | 72 | 0 | 0.0 | 3.0 | 0.00 | 0.58 | 0.25 | 96 | 1004.9 |
| 20260903153057 | 72 | 0 | 0.0 | 2.0 | 0.00 | 0.58 | 0.25 | 97 | 1005.0 |
| 20260903151603 | 71 | 0 | 0.0 | 0.0 | 0.00 | 0.58 | 0.25 | 98 | 1004.8 |
| 20260903150106 | 70 | 0 | 0.0 | 3.0 | 0.00 | 0.58 | 0.25 | 98 | 1005.4 |
| 20260903144601 | 69 | 222 | 0.0 | 4.0 | 0.00 | 0.60 | 0.25 | 98 | 1005.2 |
| 20260903143107 | 69 | 0 | 0.0 | 3.0 | 0.00 | 0.60 | 0.25 | 98 | 1005.3 |
| 20260903141611 | 68 | 0 | 0.0 | 2.0 | 0.00 | 0.60 | 0.25 | 98 | 1005.2 |
| 20260903140115 | 68 | 226 | 1.0 | 4.0 | 0.00 | 0.60 | 0.25 | 98 | 1005.2 |
| 20260903134559 | 68 | 0 | 0.0 | 1.0 | 0.00 | 0.60 | 0.25 | 98 | 1005.1 |
| 20260903133057 | 67 | 0 | 0.0 | 1.0 | 0.00 | 0.60 | 0.25 | 98 | 1005.2 |
| 20260903131612 | 66 | 0 | 0.0 | 0.0 | 0.00 | 0.60 | 0.25 | 98 | 1005.4 |
| 20260903130059 | 66 | 0 | 0.0 | 0.0 | 0.00 | 0.60 | 0.25 | 98 | 1005.3 |
| 20260903124559 | 66 | 0 | 0.0 | 0.0 | 0.00 | 0.60 | 0.25 | 98 | 1005.3 |
| 20260903123106 | 66 | 0 | 0.0 | 0.0 | 0.00 | 0.60 | 0.25 | 98 | 1005.7 |
| 20260903121623 | 65 | 0 | 0.0 | 0.0 | 0.00 | 0.60 | 0.25 | 98 | 1005.7 |
| 20260903120059 | 65 | 0 | 0.0 | 0.0 | 0.00 | 0.60 | 0.25 | 98 | 1005.7 |
| 20260903114557 | 65 | 0 | 0.0 | 1.0 | 0.00 | 0.61 | 0.25 | 97 | 1005.5 |
| 20260903113055 | 64 | 0 | 0.0 | 3.0 | 0.00 | 0.61 | 0.25 | 98 | 1005.5 |
| 20260903111555 | 64 | 164 | 0.0 | 1.0 | 0.00 | 0.61 | 0.25 | 97 | 1005.7 |
| 20260903110058 | 64 | 0 | 0.0 | 1.0 | 0.00 | 0.61 | 0.25 | 97 | 1005.9 |
| 20260903104603 | 64 | 164 | 0.0 | 2.0 | 0.00 | 0.62 | 0.25 | 97 | 1006.0 |
| 20260903103057 | 64 | 0 | 0.0 | 2.0 | 0.00 | 0.62 | 0.25 | 97 | 1006.0 |
| 20260903101602 | 64 | 0 | 0.0 | 2.0 | 0.00 | 0.62 | 0.25 | 97 | 1005.8 |
| 20260903100059 | 64 | 0 | 0.0 | 2.0 | 0.00 | 0.62 | 0.25 | 97 | 1005.6 |
| 20260903094608 | 64 | 0 | 0.0 | 2.0 | 0.00 | 0.62 | 0.25 | 97 | 1005.9 |
| 20260903093106 | 64 | 0 | 0.0 | 1.0 | 0.00 | 0.62 | 0.25 | 97 | 1005.6 |
| 20260903091602 | 64 | 0 | 0.0 | 0.0 | 0.00 | 0.62 | 0.25 | 97 | 1005.4 |
| 20260903090107 | 64 | 0 | 0.0 | 1.0 | 0.00 | 0.62 | 0.25 | 97 | 1005.8 |
| 20260903084605 | 64 | 0 | 0.0 | 1.0 | 0.01 | 0.62 | 0.25 | 97 | 1005.9 |
| 20260903083059 | 64 | 0 | 0.0 | 0.0 | 0.02 | 0.62 | 0.25 | 97 | 1005.9 |
| 20260903081555 | 64 | 0 | 0.0 | 2.0 | 0.03 | 0.62 | 0.25 | 97 | 1006.0 |
| 20260903080058 | 64 | 208 | 0.0 | 1.0 | 0.03 | 0.62 | 0.25 | 97 | 1005.8 |
| 20260903074559 | 64 | 0 | 0.0 | 2.0 | 0.03 | 0.62 | 0.24 | 97 | 1005.8 |
| 20260903073059 | 64 | 0 | 0.0 | 3.0 | 0.02 | 0.61 | 0.23 | 97 | 1005.9 |
| 20260903071557 | 64 | 0 | 0.0 | 2.0 | 0.01 | 0.60 | 0.22 | 97 | 1006.0 |
| 20260903070101 | 64 | 0 | 0.0 | 2.0 | 0.02 | 0.60 | 0.22 | 97 | 1005.8 |
| 20260903064601 | 64 | 12 | 0.0 | 3.0 | 0.01 | 0.58 | 0.21 | 97 | 1006.5 |
| 20260903063103 | 64 | 0 | 0.0 | 0.0 | 0.02 | 0.58 | 0.21 | 97 | 1006.5 |
| 20260903061601 | 64 | 0 | 0.0 | 0.0 | 0.03 | 0.58 | 0.21 | 97 | 1006.6 |
| 20260903060122 | 64 | 0 | 0.0 | 0.0 | 0.03 | 0.58 | 0.20 | 97 | 1006.7 |
| 20260903054602 | 64 | 0 | 0.0 | 1.0 | 0.06 | 0.58 | 0.20 | 97 | 1007.1 |
| 20260903053105 | 64 | 0 | 0.0 | 3.0 | 0.08 | 0.57 | 0.19 | 97 | 1007.9 |
| 20260903051605 | 64 | 0 | 0.0 | 3.0 | 0.11 | 0.56 | 0.18 | 97 | 1008.2 |
| 20260903050104 | 64 | 0 | 0.0 | 0.0 | 0.17 | 0.55 | 0.17 | 97 | 1007.8 |
| 20260903044557 | 64 | 0 | 0.0 | 3.0 | 0.23 | 0.52 | 0.14 | 97 | 1008.0 |
| 20260903043104 | 64 | 0 | 1.0 | 3.0 | 0.20 | 0.49 | 0.11 | 97 | 1008.3 |
| 20260903041603 | 64 | 0 | 0.0 | 2.0 | 0.16 | 0.45 | 0.07 | 97 | 1008.8 |
| 20260903034600 | 63 | 250 | 4.0 | 9.0 | 0.00 | 0.29 | 0.29 | 97 | 1010.1 |
| 20260903033059 | 63 | 0 | 0.0 | 0.0 | 0.00 | 0.29 | 0.29 | 97 | 1009.2 |
| 20260903031558 | 63 | 0 | 0.0 | 0.0 | 0.00 | 0.29 | 0.29 | 97 | 1009.1 |
| 20260903030055 | 63 | 0 | 0.0 | 0.0 | 0.00 | 0.29 | 0.29 | 97 | 1009.2 |
| 20260903024602 | 63 | 0 | 0.0 | 0.0 | 0.00 | 0.29 | 0.29 | 97 | 1008.8 |
| 20260903023057 | 63 | 0 | 0.0 | 0.0 | 0.00 | 0.29 | 0.29 | 97 | 1009.0 |
| 20260903021556 | 63 | 0 | 0.0 | 0.0 | 0.00 | 0.29 | 0.29 | 97 | 1009.7 |
| 20260903020057 | 64 | 0 | 0.0 | 0.0 | 0.00 | 0.29 | 0.29 | 97 | 1010.2 |
| 20260903014624 | 64 | 0 | 0.0 | 0.0 | 0.00 | 0.29 | 0.29 | 97 | 1010.3 |
| 20260903013102 | 64 | 0 | 0.0 | 0.0 | 0.00 | 0.29 | 0.29 | 97 | 1009.9 |
| 20260903011608 | 64 | 0 | 0.0 | 0.0 | 0.00 | 0.29 | 0.29 | 97 | 1009.6 |
| 20260903010054 | 64 | 0 | 0.0 | 0.0 | 0.00 | 0.29 | 0.29 | 97 | 1009.8 |
| 20260903004600 | 64 | 0 | 0.0 | 0.0 | 0.00 | 0.29 | 0.29 | 96 | 1010.2 |
| 20260903003059 | 64 | 0 | 0.0 | 0.0 | 0.00 | 0.29 | 0.29 | 96 | 1009.6 |
| 20260903001556 | 64 | 0 | 0.0 | 0.0 | 0.00 | 0.29 | 0.29 | 97 | 1009.5 |
| 20260903000100 | 64 | 0 | 0.0 | 0.0 | 0.00 | 0.29 | 0.29 | 97 | 1009.8 |
| 20260902234601 | 64 | 0 | 0.0 | 0.0 | 0.00 | 0.29 | 0.29 | 97 | 1009.7 |
| 20260902233057 | 64 | 0 | 0.0 | 0.0 | 0.00 | 0.29 | 0.29 | 97 | 1009.8 |
| 20260902231602 | 64 | 0 | 0.0 | 2.0 | 0.01 | 0.29 | 0.29 | 97 | 1009.7 |
| 20260902230107 | 64 | 0 | 0.0 | 0.0 | 0.01 | 0.29 | 0.29 | 96 | 1009.8 |
| 20260902224607 | 64 | 0 | 0.0 | 0.0 | 0.01 | 0.29 | 0.29 | 96 | 1010.0 |
| 20260902223106 | 64 | 0 | 0.0 | 0.0 | 0.01 | 0.29 | 0.29 | 96 | 1010.1 |
| 20260902221556 | 65 | 0 | 0.0 | 0.0 | 0.00 | 0.28 | 0.28 | 96 | 1010.6 |
| 20260902220109 | 65 | 0 | 0.0 | 0.0 | 0.00 | 0.28 | 0.28 | 97 | 1010.4 |
| 20260902214607 | 65 | 0 | 0.0 | 0.0 | 0.00 | 0.28 | 0.28 | 97 | 1010.7 |
| 20260902213100 | 65 | 0 | 0.0 | 0.0 | 0.00 | 0.28 | 0.28 | 97 | 1010.6 |
| 20260902211555 | 65 | 0 | 0.0 | 0.0 | 0.00 | 0.28 | 0.28 | 97 | 1010.6 |
| 20260902210056 | 65 | 0 | 0.0 | 0.0 | 0.00 | 0.28 | 0.28 | 97 | 1010.4 |
| 20260902204600 | 65 | 0 | 0.0 | 0.0 | 0.00 | 0.28 | 0.28 | 97 | 1010.5 |
| 20260902203100 | 65 | 0 | 0.0 | 0.0 | 0.00 | 0.28 | 0.28 | 97 | 1010.6 |